Ypsilanti, MI

1:46 AM EDT on May 21, 2018 (GMT -0400)
Willow Run

Weather History for KYIP - June, 2013

Change the Weather History Date:

Wednesday, June 26, 2013

  Actual Average Record
Temperature  
Mean Temperature 76 °F -  
Max Temperature 86 °F 83 °F 100 °F (1988)
Min Temperature 69 °F 60 °F 47 °F (1979)
Cooling Degree Days 12    
Growing Degree Days 26 (Base 50)    
Moisture  
Dew Point 67 °F    
Average Humidity 70    
Maximum Humidity 87    
Minimum Humidity 55    
Precipitation  
Precipitation 0.16 in - - ()
Sea Level Pressure  
Sea Level Pressure 29.83 in    
Wind  
Wind Speed 7 mph (SSW)    
Max Wind Speed 14 mph    
Max Gust Speed -    
Visibility 10 miles    
Events Rain    
Averages and records for this station are not official NWS values.
T = Trace of Precipitation, MM = Missing Value Source: NWS Daily Summary

Daily Weather History Graph

Daily Weather History Graph

Search for Another Location

Airport or City:

Astronomy

Jun. 26, 2013 Rise Set
Actual Time 5:59 AM EDT 9:14 PM EDT
Civil Twilight 5:24 AM EDT 9:49 PM EDT
Nautical Twilight 4:39 AM EDT 10:33 PM EDT
Astronomical Twilight 3:45 AM EDT 11:28 PM EDT
Moon 11:31 PM EDT (6/26) 9:54 AM EDT (6/26)
Length of Visible Light 16h 24m
Length of Day
15h 15m
Waning Gibbous, 85% of the Moon is Illuminated
Jun 26
Waning Gibbous
Jun 30
Last Quarter
Jul 8
New
Jul 15
First Quarter
Jul 22
Full

Hourly Weather History & Observations

Time (EDT) Temp. Heat Index Dew Point Humidity Pressure Visibility Wind Dir Wind Speed Gust Speed Precip Events Conditions
12:53 AM 71.1 °F - 64.9 °F 81% 29.89 in 10.0 mi SW 11.5 mph - 0.13 in Rain Rain
2:53 AM 70.0 °F - 64.9 °F 84% 29.80 in 10.0 mi NNE 4.6 mph - 0.00 in Rain Light Rain
3:53 AM 70.0 °F - 64.9 °F 84% 29.80 in 10.0 mi ENE 3.5 mph - 0.01 in   Clear
4:53 AM 69.1 °F - 64.9 °F 87% 29.83 in 10.0 mi SE 3.5 mph - N/A   Overcast
5:53 AM 70.0 °F - 64.9 °F 84% 29.83 in 10.0 mi South 6.9 mph - N/A   Scattered Clouds
6:53 AM 70.0 °F - 64.9 °F 84% 29.85 in 10.0 mi South 4.6 mph - N/A   Clear
7:53 AM 71.1 °F - 64.9 °F 81% 29.85 in 10.0 mi SSW 6.9 mph - N/A   Clear
8:53 AM 73.9 °F - 66.0 °F 76% 29.86 in 10.0 mi SW 12.7 mph - N/A   Clear
9:53 AM 75.0 °F - 66.0 °F 73% 29.86 in 10.0 mi WSW 10.4 mph - N/A   Mostly Cloudy
10:01 AM 75.2 °F - 66.2 °F 73% 29.88 in 10.0 mi WSW 9.2 mph - N/A   Mostly Cloudy
10:27 AM 75.2 °F - 66.2 °F 73% 29.88 in 10.0 mi WSW 10.4 mph - N/A   Mostly Cloudy
10:40 AM 77.0 °F - 66.2 °F 69% 29.87 in 10.0 mi WSW 8.1 mph - N/A   Scattered Clouds
10:53 AM 77.0 °F - 66.0 °F 69% 29.85 in 10.0 mi West 4.6 mph - N/A   Partly Cloudy
11:53 AM 79.0 °F - 66.0 °F 64% 29.86 in 10.0 mi WSW 9.2 mph - N/A   Clear
12:20 PM 80.6 °F 82.7 °F 66.2 °F 61% 29.89 in 10.0 mi WSW 9.2 mph - N/A   Mostly Cloudy
12:49 PM 80.6 °F 82.7 °F 66.2 °F 61% 29.88 in 10.0 mi WSW 10.4 mph - N/A   Overcast
12:53 PM 80.1 °F 82.3 °F 66.9 °F 64% 29.86 in 10.0 mi WSW 8.1 mph - N/A   Overcast
1:13 PM 78.8 °F - 66.2 °F 65% 29.87 in 10.0 mi West 8.1 mph - N/A   Overcast
1:53 PM 81.0 °F 83.0 °F 66.0 °F 60% 29.83 in 10.0 mi NNW 4.6 mph - N/A   Mostly Cloudy
2:04 PM 80.6 °F 82.7 °F 66.2 °F 61% 29.84 in 10.0 mi Calm Calm - N/A   Scattered Clouds
2:53 PM 82.9 °F 85.8 °F 68.0 °F 60% 29.82 in 10.0 mi ESE 3.5 mph - N/A   Mostly Cloudy
3:22 PM 82.4 °F 85.4 °F 68.0 °F 62% 29.83 in 10.0 mi Calm Calm - N/A   Scattered Clouds
3:53 PM 82.9 °F 85.8 °F 68.0 °F 60% 29.81 in 10.0 mi South 4.6 mph - N/A   Scattered Clouds
4:53 PM 84.0 °F 87.8 °F 69.1 °F 61% 29.79 in 10.0 mi SSE 4.6 mph - N/A   Scattered Clouds
5:53 PM 84.0 °F 87.8 °F 69.1 °F 61% 29.78 in 10.0 mi SSE 4.6 mph - N/A   Partly Cloudy
6:53 PM 84.9 °F 87.6 °F 66.9 °F 55% 29.75 in 10.0 mi SSE 6.9 mph - N/A   Clear
7:53 PM 84.0 °F 87.8 °F 69.1 °F 61% 29.75 in 10.0 mi SSE 6.9 mph - N/A   Clear
8:53 PM 81.0 °F 84.1 °F 69.1 °F 67% 29.75 in 10.0 mi SSE 10.4 mph - N/A   Clear
9:53 PM 77.0 °F - 66.9 °F 71% 29.78 in 10.0 mi SW 13.8 mph - N/A   Overcast
10:53 PM 73.9 °F - 68.0 °F 82% 29.75 in 10.0 mi Calm Calm - 0.02 in Rain Light Rain
11:53 PM 73.9 °F - 69.1 °F 85% 29.75 in 10.0 mi NE 4.6 mph - 0.00 in   Overcast